AUR44D EGGD-EGTE

Flight info

Callsign AUR44D
Flight time 0h 21m
Altitude 8000
Route EXMOR
Aircraft AT76/M-SDFGIRY/S

Departure

Time 2026-04-20 20:48
Airport Bristol Airport (EGGD)

Arrival

Time 2026-04-20 21:09
Airport Exeter International Airport (EGTE)
Time Latitude Longitude Altitude Speed Heading
2026-04-20 20:21 51.38529 -2.71802 608 ft 0 kts 85°
2026-04-20 20:27 51.38529 -2.71803 605 ft 0 kts 86°
2026-04-20 20:36 51.38528 -2.71806 604 ft 0 kts 85°
2026-04-20 20:36 51.38529 -2.71803 605 ft 0 kts 86°
2026-04-20 20:40 51.38527 -2.71829 604 ft 4 kts 86°
2026-04-20 20:40 51.38529 -2.71866 604 ft 4 kts 129°
2026-04-20 20:40 51.38547 -2.71882 609 ft 1 kts 176°
2026-04-20 20:41 51.38555 -2.71883 604 ft 0 kts 176°
2026-04-20 20:43 51.38548 -2.71882 608 ft 4 kts 176°
2026-04-20 20:43 51.38507 -2.71878 604 ft 8 kts 176°
2026-04-20 20:44 51.38444 -2.71885 603 ft 11 kts 211°
2026-04-20 20:44 51.38432 -2.72030 602 ft 16 kts 268°
2026-04-20 20:44 51.38425 -2.72214 614 ft 17 kts 266°
2026-04-20 20:44 51.38418 -2.72407 608 ft 18 kts 266°
2026-04-20 20:45 51.38409 -2.72621 615 ft 20 kts 266°
2026-04-20 20:45 51.38400 -2.72853 603 ft 22 kts 266°
2026-04-20 20:45 51.38391 -2.73096 602 ft 22 kts 266°
2026-04-20 20:45 51.38360 -2.73308 622 ft 18 kts 224°
2026-04-20 20:46 51.38263 -2.73336 617 ft 12 kts 166°
2026-04-20 20:46 51.38214 -2.73281 624 ft 6 kts 97°
2026-04-20 20:46 51.38215 -2.73252 625 ft 0 kts 86°
2026-04-20 20:47 51.38221 -2.73120 625 ft 45 kts 87°
2026-04-20 20:47 51.38256 -2.72211 624 ft 115 kts 89°
2026-04-20 20:47 51.38313 -2.70801 1041 ft 127 kts 84°
2026-04-20 20:48 51.38363 -2.69413 1820 ft 126 kts 86°
2026-04-20 20:48 51.38417 -2.68018 2522 ft 123 kts 87°
2026-04-20 20:48 51.38471 -2.66535 2810 ft 146 kts 87°
2026-04-20 20:48 51.38526 -2.64832 3166 ft 157 kts 88°
2026-04-20 20:49 51.38579 -2.63070 3777 ft 159 kts 86°
2026-04-20 20:49 51.38642 -2.61283 4290 ft 163 kts 88°
2026-04-20 20:49 51.38686 -2.59451 4788 ft 166 kts 88°
2026-04-20 20:49 51.38735 -2.57602 5299 ft 166 kts 88°
2026-04-20 20:50 51.38398 -2.55861 5753 ft 175 kts 130°
2026-04-20 20:50 51.37262 -2.55110 6247 ft 189 kts 178°
2026-04-20 20:50 51.36008 -2.55812 6723 ft 196 kts 207°
2026-04-20 20:50 51.34806 -2.56867 7191 ft 199 kts 207°
2026-04-20 20:51 51.33599 -2.57944 7714 ft 196 kts 208°
2026-04-20 20:51 51.32420 -2.59007 8171 ft 197 kts 215°
2026-04-20 20:51 51.31599 -2.60825 8224 ft 215 kts 256°
2026-04-20 20:51 51.31304 -2.63262 8255 ft 233 kts 263°
2026-04-20 20:52 51.31055 -2.65899 8262 ft 247 kts 264°
2026-04-20 20:52 51.30814 -2.68680 8256 ft 257 kts 264°
2026-04-20 20:52 51.30583 -2.71551 8253 ft 264 kts 265°
2026-04-20 20:52 51.30363 -2.74487 8246 ft 268 kts 265°
2026-04-20 20:53 51.30148 -2.77457 8251 ft 270 kts 265°
2026-04-20 20:53 51.29935 -2.80436 8260 ft 271 kts 265°
2026-04-20 20:53 51.29720 -2.83432 8239 ft 272 kts 265°
2026-04-20 20:53 51.29505 -2.86428 8240 ft 271 kts 264°
2026-04-20 20:54 51.29297 -2.89428 8245 ft 272 kts 265°
2026-04-20 20:54 51.29093 -2.92431 8245 ft 273 kts 265°
2026-04-20 20:54 51.28888 -2.95444 8252 ft 273 kts 265°
2026-04-20 20:54 51.28686 -2.98468 8248 ft 273 kts 265°
2026-04-20 20:55 51.28473 -3.01098 8243 ft 275 kts 261°
2026-04-20 20:55 51.27959 -3.04076 8242 ft 275 kts 250°
2026-04-20 20:55 51.27184 -3.06816 8243 ft 274 kts 244°
2026-04-20 20:55 51.26299 -3.09554 8245 ft 274 kts 243°
2026-04-20 20:56 51.25413 -3.12193 8248 ft 274 kts 242°
2026-04-20 20:56 51.24511 -3.14873 8248 ft 274 kts 243°
2026-04-20 20:56 51.23628 -3.17607 8249 ft 274 kts 244°
2026-04-20 20:56 51.22784 -3.20288 8249 ft 274 kts 244°
2026-04-20 20:57 51.21928 -3.23001 8249 ft 274 kts 244°
2026-04-20 20:57 51.21068 -3.25716 8253 ft 274 kts 244°
2026-04-20 20:57 51.20211 -3.28435 8254 ft 274 kts 243°
2026-04-20 20:57 51.19350 -3.31145 8250 ft 274 kts 243°
2026-04-20 20:58 51.18489 -3.33856 8250 ft 273 kts 242°
2026-04-20 20:58 51.17251 -3.36088 8247 ft 270 kts 214°
2026-04-20 20:58 51.15608 -3.37513 8256 ft 269 kts 202°
2026-04-20 20:58 51.13855 -3.38554 8254 ft 269 kts 198°
2026-04-20 20:59 51.12072 -3.39499 8260 ft 270 kts 197°
2026-04-20 20:59 51.10289 -3.40463 8251 ft 271 kts 198°
2026-04-20 20:59 51.08512 -3.41496 8245 ft 272 kts 199°
2026-04-20 20:59 51.06740 -3.42557 8247 ft 272 kts 199°
2026-04-20 21:00 51.04968 -3.43613 8251 ft 272 kts 199°
2026-04-20 21:00 51.03195 -3.44668 8251 ft 272 kts 199°
2026-04-20 21:00 51.01420 -3.45724 8253 ft 272 kts 199°
2026-04-20 21:00 50.99856 -3.46653 8257 ft 272 kts 199°
2026-04-20 21:01 50.98081 -3.47705 8262 ft 273 kts 199°
2026-04-20 21:01 50.96304 -3.48758 8258 ft 272 kts 199°
2026-04-20 21:01 50.94529 -3.49813 8260 ft 273 kts 199°
2026-04-20 21:01 50.92757 -3.50861 8263 ft 266 kts 199°
2026-04-20 21:02 50.91094 -3.51867 8136 ft 249 kts 200°
2026-04-20 21:02 50.89497 -3.52845 7846 ft 244 kts 199°
2026-04-20 21:02 50.87923 -3.53808 7516 ft 241 kts 199°
2026-04-20 21:02 50.86352 -3.54741 7163 ft 241 kts 198°
2026-04-20 21:03 50.84787 -3.55665 6818 ft 240 kts 198°
2026-04-20 21:03 50.83244 -3.56574 6474 ft 240 kts 197°
2026-04-20 21:03 50.81678 -3.57491 6102 ft 240 kts 197°
2026-04-20 21:03 50.80121 -3.58411 5736 ft 239 kts 197°
2026-04-20 21:04 50.78560 -3.59326 5388 ft 239 kts 196°
2026-04-20 21:04 50.77004 -3.60240 5000 ft 239 kts 196°
2026-04-20 21:04 50.75440 -3.61153 4603 ft 240 kts 195°
2026-04-20 21:04 50.73877 -3.62069 4203 ft 239 kts 195°
2026-04-20 21:05 50.72318 -3.62951 3817 ft 233 kts 189°
2026-04-20 21:05 50.70767 -3.62822 3439 ft 221 kts 153°
2026-04-20 21:05 50.69649 -3.61312 3038 ft 212 kts 117°
2026-04-20 21:05 50.69429 -3.59100 2723 ft 205 kts 79°
2026-04-20 21:06 50.69899 -3.57069 2599 ft 191 kts 69°
2026-04-20 21:06 50.70383 -3.55319 2514 ft 157 kts 68°
2026-04-20 21:06 50.70816 -3.53909 2407 ft 135 kts 67°
2026-04-20 21:06 50.71213 -3.52671 2152 ft 117 kts 67°
2026-04-20 21:07 50.71555 -3.51587 1839 ft 106 kts 68°
2026-04-20 21:07 50.71860 -3.50529 1520 ft 111 kts 70°
2026-04-20 21:07 50.72142 -3.49388 1214 ft 112 kts 71°
2026-04-20 21:07 50.72370 -3.48217 945 ft 112 kts 76°
2026-04-20 21:08 50.72541 -3.47010 748 ft 116 kts 77°
2026-04-20 21:08 50.72732 -3.45789 602 ft 111 kts 74°
2026-04-20 21:08 50.72928 -3.44608 430 ft 110 kts 75°
2026-04-20 21:08 50.73110 -3.43441 251 ft 109 kts 76°
2026-04-20 21:09 50.73286 -3.42298 99 ft 102 kts 77°
2026-04-20 21:09 50.73407 -3.41534 96 ft 39 kts 75°
2026-04-20 21:09 50.73456 -3.41221 95 ft 20 kts 76°
2026-04-20 21:09 50.73461 -3.41076 98 ft 10 kts 134°
2026-04-20 21:10 50.73389 -3.41052 96 ft 11 kts 173°
2026-04-20 21:10 50.73310 -3.41048 97 ft 12 kts 184°
2026-04-20 21:10 50.73240 -3.41103 96 ft 12 kts 238°
2026-04-20 21:10 50.73212 -3.41231 96 ft 13 kts 256°
2026-04-20 21:11 50.73207 -3.41373 95 ft 13 kts 271°
2026-04-20 21:11 50.73210 -3.41516 95 ft 13 kts 271°
2026-04-20 21:11 50.73221 -3.41654 96 ft 11 kts 281°
2026-04-20 21:11 50.73204 -3.41730 95 ft 3 kts 183°
2026-04-20 21:12 50.73188 -3.41713 95 ft 3 kts 134°
2026-04-20 21:12 50.73177 -3.41693 95 ft 2 kts 131°
2026-04-20 21:12 50.73175 -3.41688 95 ft 0 kts 131°